Weather History for MROC - March, 2014

Change the Weather History Date:

Thursday, March 27, 2014

  Actual Average Record
Temperature  
Mean Temperature 78 °F -  
Max Temperature 87 °F 83 °F 89 °F (2011)
Min Temperature 68 °F 65 °F 58 °F (2015)
Cooling Degree Days 12    
Growing Degree Days 28 (Base 50)    
Moisture  
Dew Point 54 °F    
Average Humidity 45    
Maximum Humidity 60    
Minimum Humidity 22    
Precipitation  
Precipitation 0.00 in 0.10 in - ()
Sea Level Pressure  
Sea Level Pressure 29.97 in    
Wind  
Wind Speed 16 mph ()    
Max Wind Speed 34 mph    
Max Gust Speed 41 mph    
Visibility 8.3 miles    
Events      
Averages and records for this station are not official NWS values.
T = Trace of Precipitation, MM = Missing Value Source: Averaged Metar Reports

Daily Weather History Graph

Daily Weather History Graph

Search for Another Location

Airport or City:

Trip Planner

Search our weather history database for the weather conditions in past years. The results will help you decide how hot, cold, wet, or windy it might be!

Date:

Astronomy

Mar. 27, 2014 Rise Set
Actual Time 5:36 AM CST 5:47 PM CST
Civil Twilight 5:15 AM CST 6:08 PM CST
Nautical Twilight 4:51 AM CST 6:32 PM CST
Astronomical Twilight 4:27 AM CST 6:57 PM CST
Moon 2:51 AM CST (3/27) 3:04 PM CST (3/27)
Length of Visible Light 12h 52m
Length of Day
12h 10m
Waning Crescent, 12% of the Moon is Illuminated
Mar 27
Waning Crescent
Mar 30
New
Apr 7
First Quarter
Apr 15
Full
Apr 22
Last Quarter

Hourly Weather History & Observations

Time (CST) Temp. Heat Index Dew Point Humidity Pressure Visibility Wind Dir Wind Speed Gust Speed Precip Events Conditions
12:00 AM 73 °F - 57 °F 47% 29.84 in 12 mi ENE 34.5 mph - -  
12:00 AM 73.4 °F - 57.2 °F 57% 30.02 in - ENE 11.5 mph 23.0 mph N/A   Clear
1:00 AM 73.4 °F - 55.4 °F 53% 30.00 in - East 9.2 mph - N/A   Clear
2:00 AM 71.6 °F - 57.2 °F 60% 29.99 in - East 9.2 mph - N/A   Clear
3:00 AM 70 °F - 55 °F 50% 29.83 in 12 mi East 11.5 mph - -  
3:00 AM 69.8 °F - 55.4 °F 60% 29.99 in - East 11.5 mph - N/A   Clear
4:00 AM 69.8 °F - 55.4 °F 60% 30.00 in - East 9.2 mph - N/A   Clear
5:00 AM 69.8 °F - 55.4 °F 60% 30.01 in - East 11.5 mph 23.0 mph N/A   Clear
6:00 AM 70 °F - 55 °F 50% 29.89 in 12 mi East 25.3 mph - -   Clear
6:00 AM 69.8 °F - 55.4 °F 60% 30.03 in - East 13.8 mph 25.3 mph N/A   Clear
7:00 AM 71.6 °F - 55.4 °F 57% 30.05 in 6.2 mi East 11.5 mph 25.3 mph N/A   Mostly Cloudy
8:00 AM 75.2 °F - 53.6 °F 47% 30.07 in 6.2 mi ESE 11.5 mph 23.0 mph N/A   Mostly Cloudy
9:00 AM 79 °F - 49 °F 24% 29.91 in 12 mi East 13.8 mph - -   Clear
9:00 AM 78.8 °F - 48.2 °F 34% 30.07 in - East 13.8 mph 25.3 mph N/A   Clear
10:00 AM 82.4 °F - 50.0 °F 32% 30.07 in - ENE 17.3 mph 28.8 mph N/A   Clear
11:00 AM 84.2 °F - 50.0 °F 30% 30.04 in - ENE 21.9 mph 33.4 mph N/A   Clear
12:00 PM 84 °F - 51 °F 22% 29.85 in 12 mi ENE 19.6 mph - -   Scattered Clouds
12:00 PM 84.2 °F - 51.8 °F 33% 30.02 in 6.2 mi ENE 19.6 mph 34.5 mph N/A   Partly Cloudy
1:00 PM 84.2 °F - 51.8 °F 33% 29.99 in 6.2 mi ENE 12.7 mph 35.7 mph N/A   Partly Cloudy
2:00 PM 84.2 °F - 51.8 °F 33% 29.96 in 6.2 mi ENE 24.2 mph 36.8 mph N/A   Partly Cloudy
3:00 PM 83 °F - 52 °F 24% 29.78 in 12 mi NE 29.9 mph - -   Scattered Clouds
3:00 PM 84.2 °F - 51.8 °F 33% 29.95 in 6.2 mi NE 27.6 mph 41.4 mph N/A   Partly Cloudy
4:00 PM 80.6 °F 80.3 °F 53.6 °F 39% 29.93 in 6.2 mi NE 27.6 mph 39.1 mph N/A   Partly Cloudy
5:00 PM 78.8 °F - 53.6 °F 42% 29.96 in 6.2 mi NE 26.5 mph 38.0 mph N/A   Partly Cloudy
6:00 PM 75 °F - 54 °F 38% 29.85 in 12 mi ENE 23.0 mph - -   Scattered Clouds
6:00 PM 75.2 °F - 53.6 °F 47% 29.99 in 6.2 mi ENE 23.0 mph 34.5 mph N/A   Partly Cloudy
7:00 PM 73.4 °F - 55.4 °F 53% 30.01 in 6.2 mi ENE 15.0 mph 26.5 mph N/A   Partly Cloudy
8:00 PM - - - N/A% 30.03 in 6.2 mi ENE 12.7 mph 24.2 mph N/A   Partly Cloudy
9:00 PM 71 °F - 55 °F 47% 29.89 in 12 mi East 11.5 mph - -   Scattered Clouds
9:00 PM 71.6 °F - 55.4 °F 57% 30.03 in 6.2 mi East 11.5 mph - N/A   Unknown
10:00 PM 69.8 °F - 55.4 °F 60% 30.04 in 6.2 mi East 15.0 mph - N/A   Partly Cloudy
11:00 PM 69.8 °F - 55.4 °F 60% 30.02 in 6.2 mi ENE 16.1 mph - N/A   Partly Cloudy